Regional Weather Roundup
Issued by NWS State College, PA

Home | Current Version | Previous Version | Text Only | Print | Product List | Glossary On
Versions: 1 2 3 4 5 6 7 8 9 10 11 12 13 14 15 16 17 18 19 20 21 22 23 24 25 26 27 28 29 30 31 32 33 34 35 36 37 38 39 40 41 42 43 44 45 46 47 48 49 50
064
ASUS41 KCTP 271203
RWRCTP

REGIONAL WEATHER ROUNDUP
NATIONAL WEATHER SERVICE STATE COLLEGE PA
800 AM EDT MON MAR 27 2017

Note: "fair" indicates few or no clouds below 12,000 feet with no
significant weather and/or obstructions to visibility.

* = STATION THAT DOES NOT REPORT PRECIPITATION /E.G. RAIN...SNOW...ETC/
    THUNDER OR FOG.

PAZ002>004-007>009-013>016-020>023-029>032-271300-
WESTERN PENNSYLVANIA

CITY           SKY/WX    TMP DP  RH WIND       PRES   REMARKS
ERIE           CLOUDY    54  51  90 SW6       29.91S
MEADVILLE      CLOUDY    53  50  89 SW9       29.93R
FRANKLIN*      CLOUDY    52  48  87 SW7       29.96S
NEW CASTLE     CLOUDY    54  52  93 SW5       29.97R
BEAVER COUNTY  CLOUDY    52  52 100 SW7       29.97R
BUTLER*        MOCLDY    52  50  93 SW6       29.98R
PITTSBURGH INT MOCLDY    55  53  93 SW7       29.97R
PITTSBURGH     PTCLDY    54  52  93 SW7       29.97R
INDIANA*       CLOUDY    52  50  93 CALM      30.01R
LATROBE        MOCLDY    55  55 100 SW9       29.99R
WASHINGTON CO* PTCLDY    54  52  94 SW7       30.00S
$$

PAZ004>006-010>012-017>019-024>028-033>037-041-042-045-046-049>053-271300-
CENTRAL PENNSYLVANIA

CITY           SKY/WX    TMP DP  RH WIND       PRES   REMARKS
BRADFORD       CLOUDY    43  43 100 S5        29.96R
DUBOIS         CLOUDY    46  43  89 VRB3      29.97R
CLEARFIELD       N/A    N/A N/A N/A MISG      30.00R
JOHNSTOWN      LGT RAIN  47  46  97 SW5       29.99R
ALTOONA        LGT RAIN  45  43  93 S7        30.02F
STATE COLLEGE  LGT RAIN  41  39  93 SW5       30.03S
WILLIAMSPORT   CLOUDY    42  38  85 CALM      30.06S
SELINSGROVE    CLOUDY    41  39  93 S3        30.09S
FT INDIANTOWN  LGT RAIN  39  39 100 NE3       30.09S FOG
CAPITAL CITY   FOG       43  40  89 NE3       30.10R VSB 1
HARRISBURG     CLOUDY    42  42 100 CALM      30.09S FOG
YORK           CLOUDY    43  43 100 CALM      30.08S FOG
$$

PAZ038>040-043-044-047-048-054-055-060>062-067>071-271300-
EASTERN PENNSYLVANIA

CITY           SKY/WX    TMP DP  RH WIND       PRES   REMARKS
SCRANTON       CLOUDY    39  39 100 CALM      30.05F FOG
MOUNT POCONO   FOG       33  33 100 CALM      30.04S VSB 1/4
ALLENTOWN      CLOUDY    40  37  89 NE5       30.11S FOG
QUAKERTOWN*    CLOUDY    39  39 100 CALM      30.11R
READING        LGT RAIN  41  41 100 CALM      30.10S FOG
LANCASTER      CLOUDY    42  42 100 NE5       30.08S FOG
COATESVILLE    LGT RAIN  41  41 100 CALM      30.09F VSB 3/4
POTTSTOWN      LGT RAIN  40  39  97 NE3       30.11F FOG
BLUE BELL      CLOUDY    39  39 100 CALM      30.10R VSB 1/4
DOYLESTOWN     LGT RAIN  39  39 100 CALM      30.10R FOG
WILLOW GROVE   NOT AVBL
NORTH PHILA    FOG       43  42  97 CALM      30.12S VSB 1/2
PHILADELPHIA   LGT RAIN  44  43  96 NE3       30.11S VSB 1
$$




USA.gov is the U.S. government's official web portal to all federal, state and local government web resources and services.